Location: Oberkirch
(48.5323°N, 8.0787°E)
Time: 01:15:55
(UTC+00:00)

Daily predictions for brighter satellites

Satellite Brightness Start Highest point End
(mag) Time Altitude Azimuth Time Altitude Azimuth Time Altitude Azimuth
CENTAUR R/B 4.5 02:05:13 25° N 02:05:13 25° N 02:10:23 10° NE
ACS3 Solar Sail 3.7 02:00:39 10° NNE 02:03:45 24° ENE 02:03:45 24° ENE
Cosmos 2360 Rocket 4.3 02:17:23 22° NE 02:17:23 22° NE 02:19:25 10° NE
Cosmos 2322 Rocket 4.3 02:17:42 21° NE 02:17:42 21° NE 02:19:37 10° NE
SL-16 R/B 4.4 02:24:11 19° NNE 02:24:11 19° NNE 02:25:40 10° NNE
ADEOS Rocket 3.8 02:33:26 10° NNE 02:38:45 55° ENE 02:38:45 55° ENE
CZ-2C R/B 4.5 02:37:57 10° NE 02:42:02 24° E 02:42:20 24° E
Cosmos 2219 Rocket 3.2 02:55:06 42° ENE 02:55:06 42° ENE 02:59:11 10° NE
BREEZE-M DEB (TANK) 4.4 02:53:28 79° WSW 02:53:51 81° SSW 03:17:31 10° ESE
USA 267 3.1 03:13:25 10° NE 03:20:00 86° SE 03:20:18 82° SSW
Cosmos 2228 Rocket 4.3 03:26:01 38° ENE 03:26:01 38° ENE 03:29:17 10° NNE
H-2A R/B 3.9 03:26:46 10° N 03:28:05 18° N 03:28:05 18° N
USA 238 DEB 4.3 03:33:04 38° NNW 03:33:04 38° NNW 03:39:07 10° NE
USA 238 4.3 03:33:10 38° NNW 03:33:10 38° NNW 03:39:13 10° NE
Cosmos 2278 Rocket 3.4 03:29:48 20° N 03:33:17 39° NE 03:38:32 10° ESE
Cosmos 2173 Rocket 4.4 03:31:30 10° N 03:37:33 60° ENE 03:43:31 10° SSE
Cosmos 2333 Rocket 3.3 03:39:30 31° NNW 03:39:30 31° NNW 03:43:03 10° NNE
ADEOS II 4.3 03:39:15 10° N 03:39:55 13° N 03:39:55 13° N
COSMOS 2455 3.3 03:45:06 44° NNW 03:45:06 44° NNW 03:50:12 10° NNE
Lacrosse 5 rocket 3.4 03:46:58 17° NNE 03:46:58 17° NNE 03:47:59 10° NE
Cosmos 1153 Rocket 4.3 03:39:55 10° NNW 03:46:06 77° W 03:52:19 10° S
Cosmos 2298 Rocket 4.2 03:46:57 59° NNW 03:46:57 59° NNW 03:51:28 10° NNE
Cosmos 1939 Rocket 3.9 03:43:41 10° NNE 03:47:23 42° E 03:48:49 29° SSE
ACS3 Solar Sail 2.2 03:43:21 10° N 03:47:53 44° NNW 03:47:53 44° NNW
BlueWalker 3 3.2 03:53:51 36° ESE 03:53:51 36° ESE 03:56:05 10° ESE
CENTAUR R/B 4.4 03:52:18 18° NNW 03:56:52 31° NNE 04:04:29 10° E
USA 234 3.3 03:50:59 10° SE 03:57:26 59° SW 03:58:53 49° W
Cosmos 2360 Rocket 3.0 03:59:09 34° NNW 03:59:09 34° NNW 04:03:22 10° NNE
Cosmos 2322 Rocket 3.2 03:59:32 31° NNW 03:59:32 31° NNW 04:03:32 10° NNE
Helios 1A Rocket 4.3 03:57:22 10° SE 04:00:21 30° ENE 04:02:41 14° NNE
Gbstr 26 Del rocket 3.8 03:59:16 44° SSW 04:00:30 57° SE 04:06:12 10° ENE
SL-16 R/B 3.7 04:06:02 20° NNW 04:06:02 20° NNW 04:09:09 10° N
Cosmos 44 Rocket 3.3 04:05:02 55° NW 04:06:10 84° SW 04:11:20 10° SSE
Cosmos 2016 Rocket 4.5 04:02:28 10° N 04:08:50 63° ENE 04:15:07 10° SSE
Cosmos 1943 Rocket 2.4 04:06:17 18° NNW 04:10:25 69° ENE 04:15:54 10° SE
Meteor 2-14 Rocket 4.3 04:05:44 10° SSW 04:11:49 73° WNW 04:17:55 10° N
Okean 1-7 3.6 04:13:10 40° NNW 04:13:10 40° NNW 04:16:03 10° N
H-2A R/B 4.0 04:08:38 10° N 04:11:15 41° N 04:11:15 41° N
NOSS 2-1 (C) 3.0 04:14:58 68° E 04:14:58 68° E 04:17:47 10° NE
ARGOS 3.2 04:09:41 10° N 04:14:57 52° WNW 04:16:17 42° WSW
PAYLOAD A 4.0 04:10:26 10° N 04:15:50 68° WNW 04:20:29 13° SSW
Cosmos 1908 Rocket 3.6 04:12:01 10° N 04:16:29 80° E 04:20:54 10° SSE
Cosmos 1140 Rocket 3.3 04:15:56 30° NNW 04:18:28 72° WSW 04:23:32 10° SSE
NOSS 2-1 (D) 2.9 04:19:05 72° NE 04:19:05 72° NE 04:21:49 10° NE
CZ-2C R/B 2.6 04:15:29 10° N 04:20:19 51° WNW 04:21:32 41° WSW
Timation 2 Rocket 4.0 04:14:49 16° NNW 04:20:24 82° WSW 04:26:48 10° SSE
Cosmos 1300 Rocket 4.3 04:16:58 10° N 04:21:14 51° ENE 04:25:26 10° SSE
Cosmos 1809 Rocket 4.4 04:17:48 10° SSW 04:23:48 57° WNW 04:29:49 10° N
ADEOS Rocket 3.9 04:19:33 10° N 04:25:05 31° WNW 04:25:40 31° WNW
NOSS 3-1 (C) 2.9 04:27:25 32° SW 04:29:41 76° NW 04:35:30 10° NE
Iridium 4 Rocket 3.1 04:27:23 10° N 04:31:47 76° E 04:35:56 10° S
Cosmos 2100 Rocket 4.0 04:26:11 10° NNW 04:32:11 55° W 04:38:09 10° SSW
SJ 16-02 3.4 04:28:52 10° N 04:32:27 25° ENE 04:36:01 10° ESE
Cosmos 2219 Rocket 2.9 04:36:50 30° WNW 04:37:53 32° NW 04:42:57 10° NNE
IRS-1D 3.4 04:35:25 10° NNE 04:40:26 87° ESE 04:45:22 10° SSW
SL-24 R/B - RUBIN 2 4.5 04:39:23 31° WNW 04:40:54 38° NW 04:45:28 10° NNE
TIMED 4.5 04:40:17 27° NW 04:42:26 56° WSW 04:46:35 10° S
NOSS 0 Rocket 3.9 04:37:50 10° SSW 04:43:59 84° ESE 04:50:11 10° NNE
COSMOS 2428 2.7 04:41:50 10° SW 04:47:28 62° WNW 04:53:08 10° NNE
USA 59 Rocket -0.3 04:50:47 38° WNW 04:51:07 39° NW 04:53:56 10° NNE
SL-08 RB Rocket 4.4 04:47:49 10° N 04:51:49 30° WNW 04:53:29 24° WSW
Cosmos 1459 Rocket 4.3 04:47:20 10° NNW 04:53:19 44° W 04:59:15 10° SSW
Cosmos 2322 3.9 04:50:01 13° SW 04:55:01 49° NW 05:00:32 10° NNE
FengYun 1-2 T 4.3 04:51:28 10° N 04:56:55 58° WNW 05:02:22 10° SSW
COSMO-SKYMED 1 2.3 04:54:23 10° S 04:58:30 75° WSW 05:02:39 10° NNW
SKYMED 2 3.6 04:55:35 10° S 04:59:50 54° W 05:04:07 10° NNW
Cosmos 407 Rocket 3.4 04:55:21 10° NNW 05:00:24 61° WSW 05:05:24 10° S
USA 267 3.6 04:56:31 10° ENE 05:02:46 50° NNW 05:07:39 17° W
Cosmos 1484 Rocket 3.4 04:59:32 10° NNE 05:03:01 52° E 05:06:29 10° S
Cosmos 2228 Rocket 4.3 05:03:28 21° WNW 05:03:28 21° WNW 05:06:47 10° NNW
Cosmos 1725 Rocket 4.1 04:57:43 10° NNW 05:03:50 53° W 05:09:55 10° SSW
Cosmos 1980 3.7 05:01:32 10° SSW 05:07:11 88° WNW 05:12:54 10° NNE
Cosmos 1802 Rocket 4.4 05:05:43 10° NNW 05:11:39 42° W 05:17:28 10° SSW
Cosmos 1656 Rocket 4.3 05:07:56 10° NNW 05:13:33 57° ENE 05:19:08 10° SE
NOSS 3-1 (A) 2.9 05:09:04 10° SW 05:13:49 82° NW 05:19:39 10° NE
Cosmos 2233 Rocket 4.0 05:08:52 10° NNW 05:15:06 62° W 05:21:16 10° S
Cosmos 2278 Rocket 2.6 05:12:07 10° NW 05:17:23 41° WSW 05:22:39 10° S
Cosmos 1703 Rocket 4.2 05:13:49 10° SW 05:17:45 33° WNW 05:21:45 10° N
Cosmos 2251 Rocket 3.5 05:13:55 10° NNW 05:19:17 75° WSW 05:24:37 10° SSE
Cosmos 304 Rocket 4.2 05:14:54 10° NNW 05:19:39 62° ENE 05:24:22 10° SE
NOSS 2-1 (E) 3.7 05:18:52 16° W 05:20:58 30° NW 05:23:44 10° NNE
Cosmos 1939 Rocket 4.1 05:18:18 10° NNW 05:21:04 19° WNW 05:23:42 10° WSW
CZ-3 R/B 4.1 05:18:01 10° SW 05:21:54 13° SSW 05:24:41 10° SSE
Lacrosse 5 rocket 2.7 05:20:39 12° NW 05:22:42 19° N 05:25:12 10° NE
Cosmos 2237 Rocket 2.2 05:17:49 10° SW 05:23:29 73° WNW 05:29:10 10° NNE
Cosmos 2333 Rocket 4.1 05:21:33 10° NW 05:23:43 12° NNW 05:25:54 10° N
USA-17 4.5 05:22:08 15° NW 05:24:33 51° SW 05:27:52 10° SSE
IGS 5A 3.9 05:22:00 10° NNE 05:26:01 64° ESE 05:29:59 10° S
Cosmos 2292 Rocket 4.2 05:24:11 10° SW 05:28:15 41° WNW 05:33:26 10° N
BlueWalker 3 3.6 05:27:40 12° W 05:29:35 17° SW 05:31:58 10° S
USA 276 4.3 05:30:42 10° SW 05:30:46 10° SW 05:30:51 10° SW
ACS3 Solar Sail 3.5 05:29:29 10° NW 05:30:48 11° NW 05:32:02 10° WNW
COSMOS 2455 4.5 05:28:15 11° WNW 05:31:52 17° NNW 05:35:46 10° NNE
Meteor 1-24 Rocket 4.4 05:27:54 10° SW 05:33:02 32° WNW 05:38:02 10° N
Helios 1A Rocket 3.8 05:30:36 10° SW 05:33:08 19° W 05:35:41 10° NW
Cosmos 2242 Rocket 3.6 05:29:46 10° S 05:34:08 89° E 05:38:34 10° N
Cosmos 2369 Rocket 3.2 05:29:52 10° NNW 05:35:21 47° NE 05:40:50 10° SE
CZ-4 R/B 4.5 05:31:11 10° N 05:35:37 35° WNW 05:39:58 10° SW
Cosmos 1782 Rocket 4.4 05:34:19 10° NNW 05:38:10 30° W 05:41:57 10° SSW
Cosmos 1624 Rocket 4.3 05:34:38 10° SSW 05:39:47 75° ESE 05:44:59 10° NNE
Cosmos 968 Rocket 4.5 05:36:48 10° NNW 05:41:53 49° ENE 05:46:57 10° SE
Cosmos 2360 Rocket 4.1 05:42:13 10° NW 05:43:54 11° NNW 05:45:35 10° N
Cosmos 2322 Rocket 4.2 05:43:14 10° NW 05:44:20 11° NNW 05:45:27 10° NNW
Cosmos 1420 Rocket 4.0 05:40:21 10° SW 05:45:34 63° WNW 05:50:51 10° NNE
Gbstr 26 Del rocket 3.8 05:41:52 10° W 05:47:04 69° N 05:53:31 10° ENE
Cosmos 1674 Rocket 4.4 05:42:47 10° S 05:47:06 57° E 05:51:28 10° NNE
CENTAUR R/B 3.7 05:41:06 10° NW 05:49:05 64° NE 05:58:20 10° ESE
ARIANE 5 R/B 3.5 05:45:40 10° NNE 05:50:37 54° E 05:55:36 10° S
Cosmos 1943 Rocket 3.4 05:49:34 10° NW 05:53:34 21° W 05:57:32 10° SSW
